Location: Bonny Doon Airfield
(37.0704°N, 122.1252°W)
Time: 12:38:03
(UTC-08:00)

Vanguard 2 - Visible Passes

Search period start: 18 December 2017 00:00
Search period end: 28 December 2017 00:00
Orbit: 553 x 2939 km, 32.9° (Epoch: 17 December)

Date Brightness Start Highest point End Pass type
(mag) Time Alt. Az. Time Alt. Az. Time Alt. Az.
18 Dec 9.2 18:44:51 10° W 18:48:52 23° SSW 18:51:36 13° SSE visible
19 Dec 9.6 19:03:43 10° WSW 19:06:36 15° SSW 19:09:07 10° S visible
21 Dec 9.4 17:28:45 10° W 17:34:54 33° SSW 17:39:10 10° SE visible
22 Dec 9.8 17:47:20 10° W 17:52:38 24° SSW 17:56:32 10° SSE visible
23 Dec 10.0 18:06:17 10° WSW 18:10:15 17° SW 18:13:26 10° S visible
24 Dec 10.6 18:26:36 10° SW 18:27:47 11° SW 18:28:53 10° SSW visible
